Weather History for New Bern, NC

Change the Weather History Date:

Friday, February 1, 2013

  Actual Average Record
Temperature  
Mean Temperature 42 °F 45 °F  
Max Temperature 54 °F 56 °F 81 °F (2002)
Min Temperature 28 °F 35 °F 11 °F (1965)
Degree Days  
Heating Degree Days 23 20  
Month to date heating degree days 20  
Since 1 July heating degree days 1444 1660  
Cooling Degree Days 0 0  
Month to date cooling degree days 0  
Year to date cooling degree days 7 1  
Moisture  
Dew Point 15 °F    
Average Humidity 42    
Maximum Humidity 64    
Minimum Humidity 19    
Precipitation  
Precipitation 0.00 in 0.13 in 1.13 in (2007)
Month to date precipitation 0.00 0.13  
Year to date precipitation 1.83 4.15  
Snow  
Snow 0.00 in - - ()
Month to date snowfall 0.0  
Since 1 July snowfall 0.0  
Snow Depth 0.00 in    
Sea Level Pressure  
Sea Level Pressure 30.20 in    
Wind  
Wind Speed 11 mph (WNW)    
Max Wind Speed 28 mph    
Max Gust Speed 38 mph    
Visibility 10 miles    
Events      
T = Trace of Precipitation, MM = Missing Value Source: NWS Daily Summary

Daily Weather History Graph

Daily Weather History Graph

Search for Another Location

Airport:

Trip Planner

Search our weather history database for the weather conditions in past years. The results will help you decide how hot, cold, wet, or windy it might be!

Date:

Astronomy

Feb. 01, 2013 Rise Set
Actual Time 7:06 AM EST 5:37 PM EST
Civil Twilight 6:40 AM EST 6:03 PM EST
Nautical Twilight 6:10 AM EST 6:34 PM EST
Astronomical Twilight 5:40 AM EST 7:03 PM EST
Moon 11:25 PM EST (2/1) 9:54 AM EST (2/1)
Length of Visible Light 11h 23m
Length of Day
10h 30m
Waning Gibbous, 70% of the Moon is Illuminated
Feb 1
Waning Gibbous
Feb 3
Last Quarter
Feb 10
New
Feb 17
First Quarter
Feb 25
Full

Hourly Weather History & Observations

Time (EST) Temp. Windchill Dew Point Humidity Pressure Visibility Wind Dir Wind Speed Gust Speed Precip Events Conditions
1:54 AM 39.0 °F 34.8 °F 26.1 °F 60% 30.08 in 10.0 mi SW 5.8 mph - N/A   Clear
2:54 AM 39.0 °F 34.0 °F 26.1 °F 60% 30.06 in 10.0 mi SW 6.9 mph - N/A   Clear
3:54 AM 54.0 °F - 26.1 °F 34% 30.04 in 10.0 mi SSW 4.6 mph - N/A   Clear
4:54 AM 53.1 °F - 26.1 °F 35% 30.01 in 10.0 mi SW 9.2 mph - N/A   Clear
7:54 AM - - - N/A% 30.02 in 10.0 mi WSW 12.7 mph 24.2 mph N/A   Clear
8:54 AM - - - N/A% 30.04 in 10.0 mi WSW 18.4 mph 26.5 mph N/A   Clear
9:54 AM - - - N/A% 30.06 in 10.0 mi West 21.9 mph 31.1 mph N/A   Clear
10:54 AM 48.0 °F - 28.0 °F 46% 30.11 in 10.0 mi NW 17.3 mph 34.5 mph N/A   Overcast
11:54 AM 48.0 °F - 19.9 °F 33% 30.14 in 10.0 mi NW 19.6 mph 28.8 mph N/A   Mostly Cloudy
12:54 PM 48.0 °F - 8.1 °F 20% 30.16 in 10.0 mi NW 17.3 mph 38.0 mph N/A   Clear
1:54 PM 48.0 °F - 12.9 °F 24% 30.18 in 10.0 mi NNW 17.3 mph 28.8 mph N/A   Clear
2:54 PM 46.0 °F 39.6 °F 9.0 °F 22% 30.19 in 10.0 mi NW 15.0 mph 25.3 mph N/A   Clear
3:54 PM 45.0 °F 38.9 °F 9.0 °F 23% 30.23 in 10.0 mi NW 12.7 mph 23.0 mph N/A   Clear
4:54 PM 43.0 °F 34.8 °F 5.0 °F 21% 30.27 in 10.0 mi NNW 18.4 mph 24.2 mph N/A   Clear
5:54 PM 39.0 °F 32.8 °F 7.0 °F 27% 30.29 in 10.0 mi NNW 9.2 mph - N/A   Clear
6:54 PM 37.9 °F 32.1 °F 6.1 °F 27% 30.32 in 10.0 mi NW 8.1 mph - N/A   Clear
7:54 PM 36.0 °F 32.1 °F 8.1 °F 31% 30.35 in 10.0 mi NNW 4.6 mph - N/A   Clear
8:54 PM 34.0 °F 29.8 °F 10.0 °F 37% 30.37 in 10.0 mi NW 4.6 mph - N/A   Clear
9:54 PM 32.0 °F 28.7 °F 12.9 °F 45% 30.39 in 10.0 mi WNW 3.5 mph - N/A   Clear
10:54 PM 30.0 °F - 15.1 °F 54% 30.41 in 10.0 mi Calm Calm - N/A   Clear
11:54 PM 30.0 °F 26.5 °F 10.9 °F 45% 30.42 in 10.0 mi North 3.5 mph - N/A   Clear